FENGYUN 1C DEB, 31914

Orbit data source: Space-Track

FENGYUN 1C DEB, 31914 is space debris in SSO originally from a launch on Mon, 10 May 1999 UTC launched from the Taiyaun Space Center, China (TSC). Fengyun 1C debris stems from the Chinese weather satellite Fengyun-1C, which was intentionally destroyed by a Chinese anti-satellite missile in 2007. This event dramatically increased the amount of space debris, with thousands of trackable fragments posing hazards to satellites and human spaceflight. The Fengyun 1C debris cloud has become a focal point in discussions about space sustainability and the need for international regulations to prevent the creation of new debris.

Loading next visibility...
Identifier
31914, 1999-025CLR
Orbit
SSO
Country
Flag of CNCN / PRC
Related business
Manufacturer
Unknown
Mission
Spacecraft
Bus & Motor
Unknown
Mass
Unknown
Launch date (UTC)
1999-05-10 (27 years ago)
Launch vehicle
Unknown
Launch site
Taiyaun Space Center, China (TSC)
Object type
Payload
Rocket body
Debris
Shape & HBR
Unknown shape, 0.1 m
Radar Cross Section
Small (<0.1 m²)

Expand to show TLE details & history
Last TLE update: 1 week ago

TLE from 1 week ago
0 FENGYUN 1C DEB
1 31914U 99025CLR 26152.13350244  .00000481  00000-0  10024-3 0  9994
2 31914  99.0047  33.8773 0180273 273.2811  84.7776 14.56001571709527
Epoch: 2026-06-01T03:12Z
TLE epoch observation values (Epoch: 2026-06-01T03:12:14.610Z)
Latitude
-0.00004°
Longitude
96.19123°
Altitude
699.731 km
Speed
7.511 km/s
True Right ascension
02h 15m 30s
True Declination
0° 00' 00"
Sunlit
Object was in daylight at epoch
Visualization orbit readout
Latitude
Unknown
Longitude
Unknown
Altitude
Unknown
Speed
Unknown
Apparent Right ascension
Unknown
Apparent Declination
Unknown
Sunlit
N/A
Visualization observer readout
Local Sidereal Time
02:43:08
Azimuth
Unknown
Elevation
Unknown
Doppler factor
Unknown
Orbital elements
Apogee altitude
830.896 km
Perigee altitude
575.58 km
Semi-major axis
7,081.375 km
Eccentricity
0.01803
Inclination
99.0047°
RAAN
33.8773°
Arg. of periapsis
273.2811°
True anomaly
86.83858°
Mean anomaly
84.7776°
Eccentric anomaly
85.80772°
Mean motion
3.64223 °/min
Orbital period
98.84 mins
BSTAR
0.00010024
Loading maneuver chart data...
Computing Atmospheric mass density...

Documentation

Showing up to 5 results
|